Voltar ao catálogo

CZ-3C DEB

AtivoGTO
NORAD 40831·DEBRIS·🇨🇳 China

Lançado Oct 31, 2010 de Xichang Satellite Launch Center

Loading…

TLE

ObsoletoSource: Space-Track

Época: Sep 4, 2026, 19:01 UTC

1 40831U 10057AY  26247.79294595  .00000064  00000-0  29525-3 0  9996
2 40831  20.1285  95.9624 7185501 163.7677 244.6463  2.20873098  2285

Acompanhe CZ-3C DEB em tempo real com AllMySat

Download on the App Store